Weather History for Keahole Point, HI

Change the Weather History Date:

Monday, May 7, 2012

  Actual Average Record
Temperature  
Mean Temperature 76 °F -  
Max Temperature 82 °F 80 °F 87 °F (1985)
Min Temperature 69 °F 70 °F 66 °F (1991)
Cooling Degree Days 10    
Growing Degree Days 26 (Base 50)    
Moisture  
Dew Point 64 °F    
Average Humidity 65    
Maximum Humidity 76    
Minimum Humidity 52    
Precipitation  
Precipitation 0.00 in - - ()
Sea Level Pressure  
Sea Level Pressure 30.06 in    
Wind  
Wind Speed 7 mph (SE)    
Max Wind Speed 13 mph    
Max Gust Speed -    
Visibility 10 miles    
Events      
Averages and records for this station are not official NWS values.
T = Trace of Precipitation, MM = Missing Value Source: NWS Daily Summary

Daily Weather History Graph

Daily Weather History Graph

Search for Another Location

Airport:

Trip Planner

Search our weather history database for the weather conditions in past years. The results will help you decide how hot, cold, wet, or windy it might be!

Date:

Astronomy

May. 07, 2012 Rise Set
Actual Time 5:51 AM HST 6:49 PM HST
Civil Twilight 5:28 AM HST 7:13 PM HST
Nautical Twilight 5:00 AM HST 7:40 PM HST
Astronomical Twilight 4:32 AM HST 8:08 PM HST
Moon 9:01 PM HST (5/7) 7:19 AM HST (5/7)
Length of Visible Light 13h 44m
Length of Day
12h 58m
Waning Gibbous, 95% of the Moon is Illuminated
May 7
Waning Gibbous
May 12
Last Quarter
May 20
New
May 28
First Quarter
Jun 4
Full

Hourly Weather History & Observations

Time (HST) Temp. Heat Index Dew Point Humidity Pressure Visibility Wind Dir Wind Speed Gust Speed Precip Events Conditions
12:53 AM 73.0 °F - 63.0 °F 71% 30.04 in 10.0 mi ESE 6.9 mph - N/A   Clear
1:53 AM 73.0 °F - 64.0 °F 73% 30.03 in 10.0 mi SE 8.1 mph - N/A   Clear
2:53 AM 73.0 °F - 64.0 °F 73% 30.04 in 10.0 mi East 6.9 mph - N/A   Clear
3:53 AM 73.0 °F - 63.0 °F 71% 30.04 in 10.0 mi East 5.8 mph - N/A   Mostly Cloudy
4:53 AM 71.1 °F - 61.0 °F 70% 30.04 in 10.0 mi NE 4.6 mph - N/A   Partly Cloudy
5:04 AM 69.8 °F - 60.8 °F 73% 30.04 in 10.0 mi ENE 4.6 mph - N/A   Mostly Cloudy
5:19 AM 71.6 °F - 60.8 °F 69% 30.04 in 10.0 mi ENE 4.6 mph - N/A   Scattered Clouds
5:53 AM 70.0 °F - 62.1 °F 76% 30.06 in 10.0 mi ENE 4.6 mph - N/A   Clear
6:53 AM 73.0 °F - 60.1 °F 64% 30.07 in 10.0 mi NE 4.6 mph - N/A   Clear
7:53 AM 78.1 °F - 62.1 °F 58% 30.09 in 10.0 mi East 5.8 mph - N/A   Scattered Clouds
8:53 AM 79.0 °F - 60.1 °F 52% 30.09 in 10.0 mi NW 5.8 mph - N/A   Mostly Cloudy
9:53 AM 78.1 °F - 64.9 °F 64% 30.09 in 10.0 mi South 9.2 mph - N/A   Mostly Cloudy
10:53 AM 80.1 °F 81.7 °F 64.0 °F 58% 30.09 in 10.0 mi South 11.5 mph - N/A   Mostly Cloudy
11:53 AM 82.0 °F 84.1 °F 66.0 °F 58% 30.08 in 10.0 mi South 12.7 mph - N/A   Partly Cloudy
12:53 PM 82.0 °F 84.1 °F 66.0 °F 58% 30.06 in 10.0 mi SSW 12.7 mph - N/A   Clear
1:53 PM 82.0 °F 84.1 °F 66.0 °F 58% 30.06 in 10.0 mi SSW 12.7 mph - N/A   Partly Cloudy
2:53 PM 81.0 °F 82.7 °F 64.9 °F 58% 30.05 in 10.0 mi SW 8.1 mph - N/A   Mostly Cloudy
3:53 PM 80.1 °F 81.9 °F 64.9 °F 60% 30.03 in 10.0 mi SW 8.1 mph - N/A   Partly Cloudy
4:53 PM 79.0 °F - 64.9 °F 62% 30.02 in 10.0 mi West 6.9 mph - N/A   Partly Cloudy
5:53 PM 79.0 °F - 64.0 °F 60% 30.01 in 10.0 mi WNW 8.1 mph - N/A   Mostly Cloudy
6:53 PM 78.1 °F - 64.0 °F 62% 30.02 in 10.0 mi NW 5.8 mph - N/A   Clear
7:53 PM 77.0 °F - 64.9 °F 66% 30.04 in 10.0 mi South 6.9 mph - N/A   Clear
8:53 PM 77.0 °F - 64.9 °F 66% 30.07 in 10.0 mi SSE 11.5 mph - N/A   Clear
9:53 PM 75.9 °F - 66.0 °F 71% 30.08 in 10.0 mi SSE 9.2 mph - N/A   Clear
10:53 PM 73.9 °F - 64.9 °F 73% 30.09 in 10.0 mi ESE 4.6 mph - N/A   Clear
11:53 PM 73.9 °F - 64.0 °F 71% 30.09 in 10.0 mi ESE 9.2 mph - N/A   Clear